Date,TemperatureHighF,TemperatureAvgF,TemperatureLowF,DewpointHighF,DewpointAvgF,DewpointLowF,HumidityHigh,HumidityAvg,HumidityLow,PressureMaxIn,PressureMinIn,WindSpeedMaxMPH,WindSpeedAvgMPH,GustSpeedMaxMPH,PrecipitationSumIn
2013-9-1,69,59,50,-100,-100,-100,0,0,100,0.00,40.00,109,-20,0,0.00
2013-9-2,79,66,54,-100,-100,-100,0,0,100,0.00,40.00,112,68,0,0.00
2013-9-3,78,65,53,-100,-100,-100,0,0,100,0.00,40.00,114,-57,0,0.01
2013-9-4,78,67,56,-100,-100,-100,0,0,100,0.00,40.00,115,66,0,0.01
2013-9-5,78,67,56,-100,-100,-100,0,0,100,0.00,40.00,82,60,0,0.00
2013-9-6,78,62,52,-100,-100,-100,0,0,100,0.00,40.00,115,73,0,0.03
2013-9-7,74,64,55,-100,-100,-100,0,0,100,0.00,40.00,97,62,0,0.02
2013-9-8,73,64,56,-100,-100,-100,0,0,100,0.00,40.00,96,7,0,0.00
2013-9-9,62,54,49,-100,-100,-100,0,0,100,0.00,40.00,115,56,0,0.02
2013-9-10,51,50,47,-100,-100,-100,0,0,100,0.00,40.00,116,113,0,0.02
2013-9-11,53,51,50,-100,-100,-100,0,0,100,0.00,40.00,117,-42,0,0.03
2013-9-12,52,50,49,-100,-100,-100,0,0,100,0.00,40.00,118,117,0,0.09
2013-9-13,61,53,50,-100,-100,-100,0,0,100,0.00,40.00,117,55,0,0.07
2013-9-14,62,51,45,-100,-100,-100,0,0,100,0.00,40.00,117,103,0,0.01
2013-9-15,48,48,46,-100,-100,-100,0,0,100,0.00,40.00,117,-14,0,0.02
2013-9-16,63,50,44,-100,-100,-100,0,0,100,0.00,40.00,117,-1,0,0.01
2013-9-17,67,56,47,-100,-100,-100,0,0,100,0.00,40.00,114,24,0,0.01
2013-9-18,55,52,48,-100,-100,-100,0,0,100,0.00,40.00,114,90,0,0.01
2013-9-19,56,47,37,-100,-100,-100,0,0,100,0.00,40.00,107,-176,0,0.00
2013-9-20,64,51,36,-100,-100,-100,0,0,100,0.00,40.00,111,71,0,0.00
2013-9-21,70,57,52,-100,-100,-100,0,0,100,0.00,40.00,78,53,0,0.01
2013-9-22,63,53,44,-100,-100,-100,0,0,100,0.00,40.00,115,26,0,0.01
2013-9-23,50,45,42,-100,-100,-100,0,0,100,0.00,40.00,113,30,0,0.01
2013-9-24,63,51,43,-100,-100,-100,0,0,100,0.00,40.00,85,15,0,0.00
2013-9-25,64,56,47,-100,-100,-100,0,0,100,0.00,40.00,71,46,0,0.00
2013-9-26,57,50,40,-100,-100,-100,0,0,100,0.00,40.00,103,-114,0,0.00
2013-9-27,47,39,33,-100,-100,-100,0,0,100,0.00,40.00,117,-110,0,0.00
2013-9-28,51,38,31,-100,-100,-100,0,0,100,0.00,40.00,102,74,0,0.01
2013-9-29,59,50,44,-100,-100,-100,0,0,100,0.00,40.00,63,42,0,0.01
2013-9-30,64,56,47,-100,-100,-100,0,0,100,0.00,40.00,59,-132,0,0.00